Regional Weather Roundup
Issued by NWS Green Bay, WI

Home | Current Version | Previous Version | Graphics & Text | Print | Product List | Glossary Off
Versions: 1 2 3 4 5 6 7 8 9 10 11 12 13 14 15 16 17 18 19 20 21 22 23 24 25 26 27 28 29 30 31 32 33 34 35 36 37 38 39 40 41 42 43 44 45 46 47 48 49 50

000
ASUS43 KGRB 030711
RWRGRB

NORTH-CENTRAL AND NORTHEAST WISCONSIN REGIONAL WEATHER ROUNDUP
NATIONAL WEATHER SERVICE GREEN BAY WI
100 AM CST SAT DEC 03 2016

WIZ005-009-010>012-018-019-030800-
NORTH CENTRAL WISCONSIN

CITY           SKY/WX    TMP DP  RH WIND       PRES   REMARKS
IRONWOOD       CLOUDY    28  26  92 SW6       30.25S
MANITOWISH WTR NOT AVBL
ARBOR VITAE    NOT AVBL
EAGLE RIVER    CLOUDY    28  28  98 CALM      30.22S
LAND O LAKES   CLOUDY    29  28  94 W3        30.22F
RHINELANDER    NOT AVBL
PHILLIPS       CLOUDY    25  23  90 CALM      30.25S
ANTIGO         NOT AVBL
TOMAHAWK       CLOUDY    28  22  81 SW3       30.26R
MERRILL        CLOUDY    29  24  79 W7        30.27R
$$

WIZ013-073-030800-
NORTHEAST WISCONSIN

CITY           SKY/WX    TMP DP  RH WIND       PRES   REMARKS
IRON MOUNTAIN  CLOUDY    32  27  81 W3        30.22R
MARINETTE      CLOUDY    34  28  79 VRB5      30.26S
OCONTO         CLOUDY    33  28  80 W6        30.27R
$$

WIZ017-030-035>037-045-030800-
CENTRAL WISCONSIN

CITY           SKY/WX    TMP DP  RH WIND       PRES   REMARKS
MEDFORD        CLOUDY    27  22  82 NW5       30.25S
WAUSAU         CLOUDY    29  22  75 W6        30.25F
MOSINEE        NOT AVBL
MARSHFIELD     CLOUDY    29  22  75 NW7       30.26S
WISC RAPIDS    CLOUDY    30  24  78 NW7       30.29F
STEVENS POINT  NOT AVBL
WAUPACA        CLOUDY    33  24  69 CALM      30.29S
SHAWANO        CLOUDY    34  27  74 W7        30.27S
CLINTONVILLE   CLOUDY    32  27  80 W8        30.27F
WAUTOMA        CLOUDY    31  24  75 W6        30.30S
$$

WIZ038-039-048-051-030800-
FOX VALLEY

CITY           SKY/WX    TMP DP  RH WIND       PRES   REMARKS
NWS GREEN BAY  NOT AVBL
APPLETON       NOT AVBL
OSHKOSH        CLOUDY    31  23  72 W7        30.28F
FOND DU LAC    CLOUDY    31  21  66 NW8       30.29F
$$

WIZ022-050-052-030800-
EAST CENTRAL WISCONSIN

CITY           SKY/WX    TMP DP  RH WIND       PRES   REMARKS
EPHRAIM        CLOUDY    35  29  80 NW7       30.23S
WASHINGTON ISL CLOUDY    36  29  78 N8        30.23S
STURGEON BAY   CLOUDY    36  28  73 NW7       30.26R
MANITOWOC      CLOUDY    33  27  78 W7        30.28S
SHEBOYGAN      CLOUDY    32  25  75 W12       30.28S
$$

LMZ563-521-522-541>543-030800-
LAKESHORE

STATION/POSITION TIME  TEMP    WIND        PRES    VSBY  WAVE
                       AIR SEA DIR/SP/G                  HT/PER
                 (UTC) (F)     (DEG/KT/KT) (MB)    (MI)  (FT/S)
SHEBOYGAN LKSHOR 0700   33     280/  9/ 11 1025.7F
KEWAUNEE LKSHORE 0642   34     270/  9/ 11 1024.4R
ALGOMA MARINA    0636          250/  6/  8   N/A
NORTHPORT PIER   0640   37     300/  8/ 12 1023.7S
SISTER BAY LKSHO 0638   37     340/ 14/ 15   N/A
CHAMBERS ISLAND  0640   36     290/  5/ 10 1023.7S
MENOMINEE LKSHOR 0642   35     260/  6/  9 1023.6R
$$



USA.gov is the U.S. government's official web portal to all federal, state and local government web resources and services.